Change the Weather History Date:

Wednesday, December 7, 2011

  Actual Average Record
Temperature  
Mean Temperature 65 °F 49 °F  
Max Temperature 77 °F 60 °F 80 °F (1951)
Min Temperature 53 °F 38 °F 20 °F (1954)
Degree Days  
Heating Degree Days 0 16  
Month to date heating degree days 79 108  
Since 1 July heating degree days 471 535  
Cooling Degree Days 0 0  
Month to date cooling degree days 0 0  
Year to date cooling degree days 2213 1900  
Growing Degree Days 15 (Base 50)    
Moisture  
Dew Point 58 °F    
Average Humidity 77    
Maximum Humidity 97    
Minimum Humidity 56    
Precipitation  
Precipitation 0.08 in 0.11 in 0.85 in (1976)
Month to date precipitation 0.15 0.79  
Year to date precipitation 39.31 50.14  
Snow  
Snow 0.00 in - - ()
Month to date snowfall 0.0  
Since 1 July snowfall 0.0  
Snow Depth 0.00 in    
Sea Level Pressure  
Sea Level Pressure 29.85 in    
Wind  
Wind Speed 13 mph (SSW)    
Max Wind Speed 26 mph    
Max Gust Speed 43 mph    
Visibility 10 miles    
Events Rain    
T = Trace of Precipitation, MM = Missing Value Source: NWS Daily Summary

Daily Weather History Graph

Daily Weather History Graph

Search for Another Location

Airport or City:

Trip Planner

Search our weather history database for the weather conditions in past years. The results will help you decide how hot, cold, wet, or windy it might be!

Date:

Astronomy

Dec. 07, 2011 Rise Set
Actual Time 7:02 AM EST 4:56 PM EST
Civil Twilight 6:34 AM EST 5:24 PM EST
Nautical Twilight 6:03 AM EST 5:55 PM EST
Astronomical Twilight 5:32 AM EST 6:26 PM EST
Moon 2:53 PM EST (12/7) 4:19 AM EST (12/7)
Length of Visible Light 10h 49m
Length of Day
9h 53m
Waxing Gibbous, 92% of the Moon is Illuminated
Dec 7
Waxing Gibbous
Dec 10
Full
Dec 17
Last Quarter
Dec 24
New
Jan 1
First Quarter

Hourly Weather History & Observations

Time (EST) Temp. Dew Point Humidity Pressure Visibility Wind Dir Wind Speed Gust Speed Precip Events Conditions
12:54 AM 61.0 °F 57.9 °F 90% 30.03 in 10.0 mi South 4.6 mph - N/A   Clear
1:54 AM 61.0 °F 59.0 °F 93% 30.02 in 10.0 mi South 5.8 mph - N/A   Clear
2:54 AM 62.1 °F 59.0 °F 90% 30.01 in 10.0 mi South 5.8 mph - N/A   Partly Cloudy
3:54 AM 62.1 °F 59.0 °F 90% 29.99 in 10.0 mi South 5.8 mph - N/A   Partly Cloudy
4:54 AM 63.0 °F 60.1 °F 90% 29.98 in 10.0 mi SSW 5.8 mph - N/A   Scattered Clouds
5:54 AM 64.9 °F 62.1 °F 90% 29.98 in 10.0 mi SSW 6.9 mph - N/A   Overcast
6:54 AM 64.0 °F 61.0 °F 90% 29.97 in 10.0 mi South 5.8 mph - N/A   Mostly Cloudy
7:54 AM 64.9 °F 61.0 °F 87% 29.96 in 10.0 mi South 5.8 mph - N/A   Clear
8:54 AM 68.0 °F 62.1 °F 81% 29.95 in 10.0 mi SSW 6.9 mph - N/A   Clear
9:54 AM 73.0 °F 63.0 °F 71% 29.93 in 10.0 mi SSW 12.7 mph 20.7 mph N/A   Clear
10:54 AM 75.9 °F 62.1 °F 62% 29.90 in 10.0 mi SSW 17.3 mph 23.0 mph 0.01 in   Scattered Clouds
11:54 AM 75.0 °F 61.0 °F 62% 29.85 in 10.0 mi SW 17.3 mph 32.2 mph N/A   Mostly Cloudy
12:54 PM 75.9 °F 62.1 °F 62% 29.80 in 10.0 mi SSW 24.2 mph 32.2 mph N/A   Mostly Cloudy
1:54 PM 77.0 °F 61.0 °F 58% 29.75 in 10.0 mi SSW 20.7 mph 27.6 mph N/A   Partly Cloudy
2:54 PM 75.0 °F 60.1 °F 60% 29.73 in 10.0 mi SSW 13.8 mph 32.2 mph N/A   Clear
3:54 PM 73.9 °F 57.9 °F 57% 29.70 in 10.0 mi SSW 19.6 mph 27.6 mph N/A   Clear
4:54 PM 71.1 °F 61.0 °F 70% 29.65 in 10.0 mi South 12.7 mph 25.3 mph N/A   Partly Cloudy
5:54 PM 70.0 °F 60.1 °F 71% 29.64 in 10.0 mi SSW 16.1 mph 33.4 mph N/A   Clear
6:54 PM 71.1 °F 60.1 °F 68% 29.63 in 10.0 mi SSW 20.7 mph 28.8 mph N/A   Mostly Cloudy
8:54 PM 59.0 °F 51.1 °F 75% 29.72 in 10.0 mi West 17.3 mph 32.2 mph 0.06 in Rain Light Rain
9:54 PM 55.9 °F 48.0 °F 75% 29.75 in 10.0 mi West 19.6 mph 26.5 mph 0.00 in Rain Light Rain
10:54 PM 55.0 °F 44.1 °F 67% 29.80 in 10.0 mi West 21.9 mph 33.4 mph 0.01 in   Mostly Cloudy
11:49 PM 53.6 °F 44.6 °F 72% 29.84 in 10.0 mi West 13.8 mph 21.9 mph N/A   Mostly Cloudy
11:54 PM 53.1 °F 44.1 °F 71% 29.85 in 10.0 mi West 15.0 mph 24.2 mph N/A   Mostly Cloudy